Location: Newark
(20.0000°S, 47.0000°E)
Time: 09:14:42
(UTC+00:00)

N. Korean satellite - Visible Passes

Search period start: 14 August 2020 00:00
Search period end: 24 August 2020 00:00
Orbit: 453 x 506 km, 97.2° (Epoch: 13 August)

Date Brightness Start Highest point End Pass type
(mag) Time Alt. Az. Time Alt. Az. Time Alt. Az.
14 Aug 6.5 01:59:08 10° N 02:02:48 76° W 02:06:33 10° SSW visible
14 Aug 9.8 15:11:30 10° SW 15:12:55 12° WSW 15:14:20 10° W visible
15 Aug 8.0 01:33:32 10° NNE 01:36:59 39° ESE 01:40:30 10° S visible
16 Aug 9.5 01:08:50 10° ENE 01:11:14 17° ESE 01:13:39 10° SE visible
16 Aug 8.2 02:41:55 10° NW 02:44:21 17° W 02:46:49 10° SW visible
17 Aug 7.0 02:14:56 10° N 02:18:25 41° W 02:21:58 10° SSW visible
18 Aug 6.8 01:48:52 10° NNE 01:52:33 73° ESE 01:56:17 10° S visible
18 Aug 9.5 15:00:22 10° SSW 15:02:41 17° WSW 15:04:57 10° WNW visible
19 Aug 8.7 01:23:33 10° NE 01:26:45 28° ESE 01:29:58 10° SSE visible
20 Aug 9.9 00:59:35 10° E 01:01:00 12° ESE 01:02:26 10° SE visible
20 Aug 7.8 02:31:02 10° NNW 02:34:02 23° W 02:37:04 10° SW visible
21 Aug 6.6 02:04:28 10° N 02:08:07 61° W 02:11:49 10° SSW visible
22 Aug 7.6 01:38:40 10° NNE 01:42:15 49° ESE 01:45:52 10° S visible
23 Aug 9.3 01:13:43 10° ENE 01:16:28 20° ESE 01:19:13 10° SSE visible
23 Aug 8.4 02:47:40 10° NW 02:49:38 14° W 02:51:37 10° WSW visible
